Regional Weather Roundup
Issued by NWS Mt. Holly, NJ

Home | Current Version | Previous Version | Text Only | Print | Product List | Glossary On
Versions: 1 2 3 4 5 6 7 8 9 10 11 12 13 14 15 16 17 18 19 20 21 22 23 24 25 26 27 28 29 30 31 32 33 34 35 36 37 38 39 40 41 42 43 44 45 46 47 48 49 50
000
ASUS41 KPHI 260812
RWRPHI

REGIONAL WEATHER ROUNDUP
NATIONAL WEATHER SERVICE MOUNT HOLLY NJ
400 AM EDT SUN MAR 26 2017

NOTE:  "FAIR" INDICATES FEW OR NO CLOUDS BELOW 12,000 FEET WITH NO
SIGNIFICANT WEATHER AND/OR OBSTRUCTIONS TO VISIBILITY.

 * = STATION DOES NOT REPORT PRECIPITATION (E.G. RAIN, SNOW, ETC.)
        OR FOG.

NJZ015>026-260900-
SOUTHERN NEW JERSEY

CITY           SKY/WX    TMP DP  RH WIND       PRES   REMARKS
POMONA         CLOUDY    44  38  79 NE20G25   30.34R
WILDWOOD*      CLOUDY    43  40  89 NE17G26   30.31R
MILLVILLE      CLOUDY    45  40  82 NE9       30.32R
WRIGHTSTOWN    CLOUDY    42  38  87 NE15      30.33S
MOUNT HOLLY    CLOUDY    42  38  85 NE9       30.36R
TRENTON        CLOUDY    42  38  85 E15       30.36S

$$
NJZ001>014-260900-
NORTHERN NEW JERSEY

CITY           SKY/WX    TMP DP  RH WIND       PRES   REMARKS
SUSSEX         LGT RAIN  36  33  89 NE7       30.40S WCI  30
ANDOVER*         N/A     35  34  96 N3        30.39S
MORRISTOWN     LGT RAIN  39  37  93 NE5       30.41S
NEWARK         LGT RAIN  40  36  86 NE12      30.41S WCI  33
TETERBORO      CLOUDY    41  32  70 NE14G23   30.41S
CALDWELL       RAIN      39  36  89 E8        30.41F WCI  33
SOMERVILLE     CLOUDY    41  34  76 E9        30.38S
ALLAIRE*       CLOUDY    41  37  86 NE18G25   30.37F
TOMS RIVER*    CLOUDY    43  37  81 NE14G20   30.37R

$$
PAZ043-044-047-054-055-060>062-066>071-260900-
EASTERN PENNSYLVANIA

CITY           SKY/WX    TMP DP  RH WIND       PRES   REMARKS
PHILADELPHIA   CLOUDY    44  38  79 NE10      30.36R
NORTH PHILA    CLOUDY    44  39  82 NE14      30.37S
BLUE BELL*     CLOUDY    41  37  87 E7        30.34S
DOYLESTOWN     CLOUDY    42  38  85 VRB3      30.35S
QUAKERTOWN*    CLOUDY    41  37  87 E7        30.36S
PERKASIE*      CLOUDY    41  37  87 E7        30.36S
POTTSTOWN      CLOUDY    42  38  85 E6G16     30.36S
LANCASTER      CLOUDY    45  41  86 E15       30.32S
COATESVILLE    CLOUDY    43  39  87 E10G26    30.32F
READING        CLOUDY    44  41  89 E9        30.33F
ALLENTOWN      CLOUDY    40  34  79 NE13      30.36F WCI  32
MOUNT POCONO   CLOUDY    31  31 100 E13G21    30.30F WCI  21
HAZLETON       CLOUDY    36  34  93 E7        30.32S WCI  30
LEHIGHTON      CLOUDY    39  34  81 NE5       30.37S
WILKES BARRE   CLOUDY    39  33  79 E5        30.34R

$$
DEZALL-MDZ008-012-015-019-020-260900-
DELAWARE AND EASTERN MARYLAND

CITY           SKY/WX    TMP DP  RH WIND       PRES   REMARKS
WILMINGTON     CLOUDY    45  39  79 E14       30.34R
DOVER          CLOUDY    46  46 100 E12       30.30S
GEORGETOWN     CLOUDY    46  43  89 E13       30.30R
EASTON         MOCLDY    48  42  81 E12       30.31S
ABERDEEN       CLOUDY    46  40  78 E13       30.31F
PATUXENT       MOCLDY    48  47  96 E9        30.24S
OCEAN CITY     CLOUDY    45  43  93 NE10G20   30.27S FOG
WALLOPS ISLAND CLOUDY    47  47 100 NE13      30.26R
CAMBRIDGE      CLOUDY    46  43  87 E9G16     30.26S
SALISBURY      CLOUDY    47  45  93 NE10      30.26F

$$
PAZ001-021-NYZ056-072-MDZ011-DCZ001-260900-
OTHER NEARBY LOCATIONS

CITY           SKY/WX    TMP DP  RH WIND       PRES   REMARKS
HARRISBURG     CLOUDY    47  40  76 E12       30.31S
STATE COLLEGE  CLOUDY    43  39  87 NE6       30.26S
WILLIAMSPORT   CLOUDY    45  39  79 E12       30.32S
BINGHAMTON     CLOUDY    32  32 100 E8        30.29S FOG     WCI  25
NEW YORK CITY  LGT RAIN  38  36  92 E12       30.43F FOG     WCI  30
BALTIMORE      CLOUDY    47  42  83 NE14      30.28S
WASHINGTON DC  CLOUDY    51  43  74 E13       30.25S

$$



USA.gov is the U.S. government's official web portal to all federal, state and local government web resources and services.